TimeMST,TemperatureF,Dew PointF,Humidity,Sea Level PressureIn,VisibilityMPH,Wind Direction,Wind SpeedMPH,Gust SpeedMPH,PrecipitationIn,Events,Conditions,WindDirDegrees,DateUTC
12:55 AM,23.0,16.0,74,30.33,10.0,NE,11.5,-,N/A,,Overcast,50,2012-11-26 07:55:00
1:55 AM,21.9,15.1,75,30.35,10.0,ENE,8.1,-,N/A,,Overcast,60,2012-11-26 08:55:00
2:55 AM,21.0,12.9,71,30.38,10.0,NE,9.2,-,N/A,,Overcast,40,2012-11-26 09:55:00
3:55 AM,19.9,12.0,71,30.40,10.0,NE,8.1,-,N/A,,Overcast,40,2012-11-26 10:55:00
4:55 AM,19.9,12.9,74,30.43,10.0,NE,4.6,-,N/A,,Overcast,40,2012-11-26 11:55:00
5:55 AM,19.0,12.0,74,30.46,10.0,NNE,5.8,-,N/A,,Overcast,30,2012-11-26 12:55:00
6:55 AM,18.0,12.0,78,30.49,10.0,ENE,3.5,-,N/A,,Overcast,70,2012-11-26 13:55:00
7:44 AM,17.6,12.2,79,30.42,10.0,Calm,Calm,-,N/A,,Overcast,0,2012-11-26 14:44:00
7:55 AM,19.0,12.0,74,30.50,10.0,Calm,Calm,-,N/A,,Overcast,0,2012-11-26 14:55:00
8:14 AM,17.6,12.2,79,30.43,10.0,Calm,Calm,-,N/A,,Overcast,0,2012-11-26 15:14:00
8:55 AM,19.0,12.0,74,30.50,10.0,South,4.6,-,N/A,,Overcast,170,2012-11-26 15:55:00
9:55 AM,23.0,15.1,72,30.51,10.0,South,5.8,-,N/A,,Overcast,180,2012-11-26 16:55:00
10:47 AM,28.4,17.6,64,30.39,10.0,SW,8.1,-,N/A,,Partly Cloudy,220,2012-11-26 17:47:00
10:55 AM,28.9,19.0,67,30.46,10.0,SW,8.1,-,N/A,,Partly Cloudy,230,2012-11-26 17:55:00
11:55 AM,33.1,21.0,61,30.43,10.0,SW,11.5,19.6,N/A,,Clear,230,2012-11-26 18:55:00
12:55 PM,33.1,21.9,64,30.42,10.0,WSW,12.7,-,N/A,,Clear,250,2012-11-26 19:55:00
1:55 PM,34.0,24.1,67,30.40,10.0,WSW,15.0,-,N/A,,Clear,250,2012-11-26 20:55:00
2:55 PM,35.1,24.1,64,30.38,10.0,SW,10.4,-,N/A,,Clear,230,2012-11-26 21:55:00
3:55 PM,32.0,24.1,73,30.37,10.0,SSW,3.5,-,N/A,,Clear,200,2012-11-26 22:55:00
4:55 PM,27.0,21.9,81,30.36,10.0,South,3.5,-,N/A,,Clear,180,2012-11-26 23:55:00
5:55 PM,27.0,23.0,85,30.35,10.0,South,5.8,-,N/A,,Clear,180,2012-11-27 00:55:00
6:55 PM,26.1,21.9,84,30.34,10.0,South,6.9,-,N/A,,Clear,190,2012-11-27 01:55:00
7:55 PM,23.0,19.9,88,30.32,10.0,South,3.5,-,N/A,,Clear,180,2012-11-27 02:55:00
8:55 PM,23.0,19.9,88,30.32,10.0,South,3.5,-,N/A,,Clear,180,2012-11-27 03:55:00
9:55 PM,19.0,17.1,92,30.31,10.0,Calm,Calm,-,N/A,,Clear,0,2012-11-27 04:55:00
10:55 PM,19.0,17.1,92,30.27,10.0,Calm,Calm,-,N/A,,Clear,0,2012-11-27 05:55:00
11:55 PM,19.9,17.1,89,30.23,10.0,Calm,Calm,-,N/A,,Clear,0,2012-11-27 06:55:00